Racecast

Alyssa Cummings

Saline (MI) · 12 · SECMI D1 · Compare head to head

Athlete rating 131.9 2013 TF season
Best race 133.5 XC
Races 69
Seasons 5 2009 — 2013

RankedNation #1267·MI #67·MI D1 #47·SEC #7·Team #6 ?

Speed rating — all races

Cross Country

XC speed rating

2012 XC 127.0

Saline (MI) · Grade 12

Date Meet Event Result Place Rating Difficulty PR/SR Flags
2012-11-03 Michigan International Speedway (MIS) 5000m 18:52 51st · 7th on team 129.4 -0.006 ★CR CSR
2012-10-27 Lake Erie Metro Park OFFICIAL 5000m 19:20.7 7th · 7th on team 128.9 +0.007 CSR
2012-10-18 Hudson Mills Metropark - OFFICIAL 5000m 19:51.8 10th · 7th on team 124.7 -0.006 CSR
2012-10-12 Willow Metropark OFFICIAL 5000m 19:41.2 9th · 4th on team 124.6 -0.003 ★CR CSR
2012-10-06 Portage West MS 5000m 18:44.8 13th · 4th on team 130.3 -0.003 ★CR CSR
2012-09-29 Huron Meadows Metropark OFFICIAL 5000m 18:43 15th · 5th on team 132.0 -0.004 ★CR SR CSR RSR
2012-09-27 Munson Park 5000m 19:41.5 2nd · 1st on team 125.5 +0.007 ★CR CSR
2012-09-22 Ella Sharp Park OFFICIAL 5000m 19:16.1 13th · 6th on team 126.7 -0.001 SR CSR
2012-09-11 Indian Creek OFFICIAL 5000m 19:31 3rd · 3rd on team 127.8 +0.004 ★CR SR CSR RSR
2012-08-29 Huron Meadows Metropark OFFICIAL 5000m 20:31.3 8th · 4th on team 120.3 -0.004 SR CSR RSR

2011 XC 126.7

Saline (MI) · Grade 11

Date Meet Event Result Place Rating Difficulty PR/SR Flags
2011-11-05 Michigan International Speedway (MIS) 5000m 19:18 61st · 6th on team 127.7 -0.006 CSR
2011-10-29 Lake Erie Metro Park OFFICIAL 5000m 20:39.9 5th · 5th on team 119.7 +0.007 CSR
2011-10-20 Hudson Mills Metropark - OFFICIAL 5000m 19:20 5th · 4th on team 128.6 -0.006 CSR
2011-10-14 Willow Metropark OFFICIAL 5000m 20:04 11th · 4th on team 124.3 -0.003
2011-10-08 Portage West MS 5000m 19:22.8 11th · 3rd on team 129.3 -0.003 CR CSR
2011-10-01 Huron Meadows Metropark OFFICIAL 5000m 19:08.2 11th · 2nd on team 129.5 -0.004 CR CSR
2011-09-27 Mill Pond Park 5000m 20:00.1 2nd · 2nd on team 129.4 +0.047 ★CR CSR
2011-09-24 Ella Sharp Park OFFICIAL 5000m 19:11.7 4th · 2nd on team 129.1 -0.001 CSR
2011-09-16 Forest Akers East Golf Course 5000m 18:44 16th · 1st on team 132.8 +0.019 ★CR SR CSR RSR
2011-09-13 Willow Metropark OFFICIAL 5000m 19:58.7 3rd · 2nd on team 125.2 -0.003 CR CSR
2011-09-10 Bath 5000m 19:45 11th · 3rd on team 126.3 +0.005 SR CSR RSR
2011-08-31 Huron Meadows Metropark OFFICIAL 5000m 20:25.9 9th · 2nd on team 120.0 -0.004 CR CSR
2011-08-27 Island Lake Recreation Area OFFICIAL 5000m 20:10 8th · 3rd on team 125.0 +0.016 ★CR SR CSR RSR

2010 XC 130.4

Saline (MI) · Grade 10

Date Meet Event Result Place Rating Difficulty PR/SR Flags
2010-11-06 Michigan International Speedway (MIS) 5000m 19:04 59th · 2nd on team 128.6 -0.006 CR CSR
2010-10-30 Lake Erie Metro Park OFFICIAL 5000m 18:59.8 1st · 1st on team 132.6 +0.007 ★CR CSR
2010-10-21 Hudson Mills Metropark - OFFICIAL 5000m 19:05 3rd · 1st on team 129.4 -0.006 ★CR CSR
2010-10-09 Portage West MS 5000m 19:46.9 18th · 1st on team 126.6 -0.003 CSR
2010-09-28 Pioneer HS 5000m 19:27.5 2nd · 1st on team 130.5 +0.018 ★CR CSR
2010-09-25 Ella Sharp Park OFFICIAL 5000m 18:42.4 2nd · 1st on team 131.7 -0.001 ★PR ★CR SR CSR
2010-09-17 Forest Akers East Golf Course 5000m 18:59 13th · 1st on team 133.5 +0.019 CR ★R CSR RSR
2010-09-14 Heritage Park (Adrian) OFFICIAL 5000m 19:35 1st · 1st on team 130.7 +0.035 ★CR CSR RSR
2010-09-11 Bath 5000m 18:58 1st · 1st on team 129.7 +0.005 PR ★CR SR CSR RSR

2009 XC 128.8

Saline (MI) · Grade 9

Date Meet Event Result Place Rating Difficulty PR/SR Flags
2009-11-07 Michigan International Speedway (MIS) 5000m 19:33.3 40th · 3rd on team 128.8 -0.006 CR CSR
2009-10-22 Hudson Mills Metropark - OFFICIAL 5000m 19:11 5th · 3rd on team 129.8 -0.006 CR CSR
2009-10-10 Portage West MS 5000m 19:36.7 44th · 3rd on team 127.1 -0.003 CR CSR
2009-09-26 Ella Sharp Park OFFICIAL 5000m 19:06 10th · 3rd on team 129.1 -0.001 PR CR SR CSR
2009-09-18 Forest Akers East Golf Course 5000m 19:24 25th · 3rd on team 131.6 +0.019 PR CR R SR CSR RSR
2009-09-15 Munson Park 5000m 19:48.4 6th · 3rd on team 126.5 +0.007 PR CR R SR CSR RSR

Track & Field

TF speed rating

2013 TF 129.6

Saline (MI) · Grade 12

Date Meet Event Result Place Rating Difficulty PR/SR Flags
2013-06-01 2013 MHSAA LP D1 State T&F Championships 3200m 11:28.51 28th · 5th on team 128.6 -0.029
2013-05-23 SEC Championship-GIRLS 1600m 5:17.47 2nd · 1st on team 131.9 -0.021
2013-05-23 SEC Championship-GIRLS 1600m 5:17.47 2nd · 1st on team 131.9 -0.021
2013-05-17 MHSAA Region 3-1 1600m 5:11.2 3rd · 2nd on team 132.9 -0.030 SR RSR
2013-05-17 MHSAA Region 3-1 3200m 11:17.97 4th · 4th on team 130.8 -0.030
2013-05-10 Siena Heights Invitational 3200m 11:21.36 3rd · 3rd on team 129.9 -0.029
2013-05-03 Golden Triangle Invitational 3200m 11:11.82 4th · 2nd on team 132.8 -0.030 SR RSR
2013-04-26 Jackson (JD) Invitational Meet 3200m 11:24.85 3rd · 3rd on team 129.4 -0.030 SR RSR
2013-04-23 Saline @ Monroe Dual 800m 2:27.4 2nd · 2nd on team 125.3 -0.022 ★PR SR
2013-04-20 April Showers Relays 1600m 5:26.11 7th · 2nd on team 127.6 -0.027
2013-04-16 Saline vs. Bedford Dual 3200m 11:30 2nd · 2nd on team 128.2 -0.026 SR RSR
2013-04-09 Ann Arbor Pioneer vs. Saline Dual 1600m 5:21.69 1st · 1st on team 127.9 -0.033 SR RSR
2013-03-28 2013 Charger Preview - Divisions I and II 3200m 11:35.08 3rd · 2nd on team 127.8 -0.034 SR RSR

2012 TF 127.2

Saline (MI) · Grade 11

Date Meet Event Result Place Rating Difficulty PR/SR Flags
2012-05-23 SEC Girls Championships 3200m 11:30.94 3rd · 3rd on team 128.8 -0.030
2012-05-11 Siena Heights Invitational 3200m 11:40.41 3rd · 2nd on team 126.6 -0.029
2012-05-04 Golden Triangle Invitational 1600m 5:23.26 8th · 2nd on team 126.9 -0.030
2012-05-01 Saline vs. Huron 3200m 12:15.86 7th · 6th on team 120.5 -0.024
2012-04-28 Phoenix Invite 1600m 5:23.34 5th · 1st on team 128.7 -0.021
2012-04-27 Jackson (JD) Invitational 3200m 11:23.34 2nd · 2nd on team 129.6 -0.030 SR RSR
2012-03-24 57th Annual Huron Relays 1600m 5:18.65 6th · 3rd on team 129.5 -0.039 SR RSR

2011 TF 125.4

Saline (MI) · Grade 10

Date Meet Event Result Place Rating Difficulty PR/SR Flags
2011-06-16 Temp Meet 3200m 11:07.8 1st · 1st on team 133.3 -0.024 SR RSR
2011-05-20 MHSAA Regional 3200m 12:03 9th · 3rd on team 121.2 -0.033
2011-05-20 MHSAA Regional 1600m 5:29.6 12th · 6th on team 123.9 -0.033 SR
2011-05-14 River Rat Invitational 3200m 11:38.61 2nd · 2nd on team 126.8 -0.024 SR RSR
2011-05-06 Golden Triangle Invitational 800m 2:29.7 10th · 2nd on team 122.1 -0.033 PR SR RSR

2010 TF 129.1

Saline (MI) · Grade 9

Date Meet Event Result Place Rating Difficulty PR/SR Flags
2010-06-05 2010 MHSAA LP D1 State T&F Championships 3200m 11:09.96 11th · 1st on team 131.2 -0.033
2010-05-21 Race results → 3200m 11:22 2nd · 2nd on team 129.4
2010-05-21 Race results → 1600m 5:09.2 4th · 2nd on team 132.5 ★PR SR
2010-05-15 River Rat Invitational 3200m 11:07.8 1st · 1st on team 133.1 -0.024 PR R SR RSR
2010-03-27 Race results → 1600m 5:25.41 2nd · 1st on team 125.9 PR SR RSR
2010-01-08 MITS Meet 1600m 5:33.6 10th · 2nd on team 122.7 -0.033 PR SR RSR